World > North America > United States > Iowa > Hanna  

Hanna, IA Hourly Weather Updates

Feedback E-mail the Weather

Quick Clicks

Hanna, IA Weather Maps

°F °C°F °C
Hanna Weather Map
UTC Time: 6/25/2024, 19:38
Your Time:

Hanna, IA Regional Weather

Expires:202406252000;;917637
ASUS43 KDMX 251906
RWRIA 

WEATHER ROUNDUP FOR IOWA
NATIONAL WEATHER SERVICE DES MOINES IA
200 PM CDT TUE JUN 25 2024

NOTE: "FAIR" INDICATES FEW OR NO CLOUDS BELOW 12,000 FEET WITH NO
SIGNIFICANT WEATHER AND/OR OBSTRUCTIONS TO VISIBILITY.

* - THESE STATIONS ARE NOT NWS STATIONS...THUS NOT UNDER NWS
QUALITY CONTROL.  THEY ALSO DO NOT REPORT WEATHER SUCH 
AS PRECIPITATION OR FOG.  


IAZ004>006-015-016-023>025-035-036-252000-
   NORTH CENTRAL IOWA
  
CITY           SKY/WX    TMP DP  RH WIND       PRES   REMARKS
ALGONA *       SUNNY     84  57  39 NE8       29.83S HX  83  TC  29   
CLARION *      SUNNY     86  72  62 NE10      29.83S HX  92  TC  30   
ESTHERVILLE    MOSUNNY   84  55  36 E9        29.85S HX  83  TC  29   
FORT DODGE *   MOSUNNY   87  72  60 VRB7      29.83F HX  93  TC  31   
MASON CITY     MOSUNNY   85  58  39 N3        29.84F HX  84  TC  29   
FOREST CITY *  MOSUNNY   84  55  37 CALM      29.84S HX  83  TC  29   
IOWA FALLS *   MOSUNNY   87  70  56 N6        29.82S HX  92  TC  31   
$$


SKY/WX - Weather  TMP - Temperature  DP - Dew Point  RH - Humidity
WIND - Wind Direction/Speed PRES - Barometric Pressure VSB - Visibility
WCI - Wind Chill Index E13G22 Wind - East Wind 13 mph/Gusts of 22 mph

Trending Headlines

Trending Entertainment Headlines

Hanna Radar Loop

Use the map search tool if you want to place a location marker on the radar map...

Hanna Quick Facts

National Two Day Weather Forecast


E-mail the Hanna Weather Forecast

Voice your opinion or tell us about page issues...